Patrick Air Force Base, FL

4:26 PM EDT on August 27, 2016 (GMT -0400)
Patrick Air Force Base

Weather History for KCOF - March, 2013

Change the Weather History Date:

Saturday, March 2, 2013

  Actual Average Record
Temperature  
Mean Temperature 54 °F -  
Max Temperature 59 °F 72 °F 87 °F (2007)
Min Temperature 47 °F 59 °F 42 °F (2009)
Degree Days  
Heating Degree Days 12    
Growing Degree Days 4 (Base 50)    
Moisture  
Dew Point 33 °F    
Average Humidity 48    
Maximum Humidity 59    
Minimum Humidity 28    
Precipitation  
Precipitation 0.00 in - - ()
Sea Level Pressure  
Sea Level Pressure 30.01 in    
Wind  
Wind Speed 17 mph (WNW)    
Max Wind Speed 24 mph    
Max Gust Speed 30 mph    
Visibility 10 miles    
Events      
Averages and records for this station are not official NWS values.
T = Trace of Precipitation, MM = Missing Value Source: NWS Daily Summary

Daily Weather History Graph

Daily Weather History Graph

Search for Another Location

Airport or City:

Trip Planner

Search our weather history database for the weather conditions in past years. The results will help you decide how hot, cold, wet, or windy it might be!

Date:

Astronomy

Mar. 02, 2013 Rise Set
Actual Time 6:45 AM EST 6:23 PM EST
Civil Twilight 6:22 AM EST 6:47 PM EST
Nautical Twilight 5:55 AM EST 7:14 PM EST
Astronomical Twilight 5:27 AM EST 7:41 PM EST
Moon 11:29 PM EST (3/2) 9:42 AM EST (3/2)
Length of Visible Light 12h 24m
Length of Day
11h 37m
Waning Gibbous, 74% of the Moon is Illuminated
Mar 2
Waning Gibbous
Mar 4
Last Quarter
Mar 11
New
Mar 19
First Quarter
Mar 27
Full

Hourly Weather History & Observations

Time (EST) Temp. Dew Point Humidity Pressure Visibility Wind Dir Wind Speed Gust Speed Precip Events Conditions
12:55 AM 54.5 °F 40.1 °F 58% 30.00 in 10.0 mi NW 18.4 mph - N/A   Mostly Cloudy
1:55 AM 53.4 °F 38.3 °F 57% 29.99 in 10.0 mi NW 17.3 mph - N/A   Mostly Cloudy
2:55 AM 52.5 °F 36.7 °F 55% 29.99 in 10.0 mi NW 19.6 mph - N/A   Overcast
3:55 AM 51.4 °F 35.6 °F 55% 30.00 in 10.0 mi NW 19.6 mph - N/A   Clear
4:55 AM 50.2 °F 35.4 °F 57% 30.01 in 10.0 mi NW 20.7 mph - N/A   Clear
5:55 AM 49.6 °F 34.3 °F 56% 30.02 in 10.0 mi NW 19.6 mph - N/A   Clear
6:55 AM 48.7 °F 33.6 °F 56% 30.02 in 10.0 mi NW 13.8 mph - N/A   Clear
7:55 AM 49.5 °F 34.5 °F 56% 30.03 in 10.0 mi WNW 10.4 mph - N/A   Clear
8:55 AM 49.8 °F 34.0 °F 55% 30.05 in 10.0 mi NW 11.5 mph - N/A   Clear
9:55 AM 53.4 °F 33.1 °F 46% 30.04 in 10.0 mi NW 11.5 mph - N/A   Clear
10:55 AM 54.5 °F 32.4 °F 43% 30.04 in 10.0 mi NNW 6.9 mph - N/A   Clear
11:55 AM 56.8 °F 33.3 °F 41% 30.03 in 10.0 mi West 10.4 mph - N/A   Clear
12:55 PM 57.9 °F 36.1 °F 44% 30.02 in 10.0 mi West 21.9 mph - N/A   Partly Cloudy
1:55 PM 59.0 °F 35.2 °F 41% 29.98 in 10.0 mi West 24.2 mph - N/A   Partly Cloudy
2:55 PM 58.3 °F 32.2 °F 37% 29.97 in 10.0 mi West 24.2 mph - N/A   Clear
3:55 PM 59.9 °F 26.4 °F 28% 29.95 in 10.0 mi West 21.9 mph 29.9 mph N/A   Clear
4:55 PM 59.2 °F 26.2 °F 28% 29.95 in 10.0 mi WNW 21.9 mph - N/A   Clear
5:55 PM 56.3 °F 30.0 °F 37% 29.98 in 10.0 mi West 21.9 mph 29.9 mph N/A   Clear
6:55 PM 53.6 °F 29.7 °F 40% 29.99 in 10.0 mi West 19.6 mph - N/A   Clear
7:55 PM 51.6 °F 32.9 °F 49% 30.01 in 10.0 mi West 16.1 mph - N/A   Clear
8:55 PM 50.7 °F 33.3 °F 51% 30.03 in 10.0 mi West 18.4 mph - N/A   Clear
9:55 PM 49.5 °F 33.6 °F 54% 30.04 in 10.0 mi West 16.1 mph - N/A   Clear
10:55 PM 49.1 °F 33.3 °F 54% 30.03 in 10.0 mi West 9.2 mph - N/A   Clear
11:55 PM 47.5 °F 33.6 °F 59% 30.02 in 10.0 mi WSW 10.4 mph - N/A   Clear